GW1851 Weather Reports


Display with metric or nautical units.
time (UTC)temp
F
wind
direction
speed
MPH
gust
MPH
rain 1hr
in
rain 24hr
in
rain mn
in
humidity
%
barometer
mb
20260507001440 54 220 0.0 0.0 0.00 0.00 0.00 48 1016.5
20260507000938 55 223 3.0 3.0 0.00 0.00 0.00 43 1016.4
20260507000435 55 210 2.0 3.0 0.00 0.00 0.00 43 1016.3
20260506235929 56 266 2.0 2.0 0.00 0.00 0.00 44 1016.5
20260506235426 56 251 2.0 5.0 0.00 0.00 0.00 44 1016.3
20260506234921 56 230 1.0 2.0 0.00 0.00 0.00 44 1016.4
20260506234420 55 253 2.0 3.0 0.00 0.00 0.00 44 1016.3
20260506233917 55 224 1.0 1.0 0.00 0.00 0.00 43 1016.1
20260506233413 56 215 2.0 2.0 0.00 0.00 0.00 44 1016.2
20260506232910 56 17 1.0 3.0 0.00 0.00 0.00 44 1016.3
20260506232406 56 218 3.0 5.0 0.00 0.00 0.00 42 1016.5
20260506231902 56 38 3.0 5.0 0.00 0.00 0.00 43 1016.5
20260506231400 56 281 3.0 3.0 0.00 0.00 0.00 41 1016.5
20260506230857 56 223 3.0 3.0 0.00 0.00 0.00 43 1016.4
20260506230354 56 246 3.0 5.0 0.00 0.00 0.00 43 1016.4
20260506225850 56 205 3.0 5.0 0.00 0.00 0.00 42 1016.5
20260506225348 57 221 2.0 2.0 0.00 0.00 0.00 40 1016.5
20260506224844 57 25 4.0 5.0 0.00 0.00 0.00 41 1016.4
20260506224342 57 247 4.0 6.0 0.00 0.00 0.00 43 1016.3
20260506223838 57 191 1.0 2.0 0.00 0.00 0.00 44 1016.3
20260506223333 57 2 3.0 5.0 0.00 0.00 0.00 42 1016.4
20260506222831 56 252 3.0 3.0 0.00 0.00 0.00 41 1016.6
20260506222326 57 223 5.0 7.0 0.00 0.00 0.00 41 1016.2
20260506221824 57 239 3.0 5.0 0.00 0.00 0.00 43 1016.2
20260506221321 57 249 5.0 7.0 0.00 0.00 0.00 40 1016.2
20260506220819 57 251 3.0 5.0 0.00 0.00 0.00 39 1016.2
20260506220314 58 234 1.0 2.0 0.00 0.00 0.00 43 1016.2
20260506215811 57 247 3.0 5.0 0.00 0.00 0.00 41 1015.8
20260506215307 57 215 1.0 1.0 0.00 0.00 0.00 39 1016.2
20260506214803 57 340 1.0 2.0 0.00 0.00 0.00 41 1016.2
20260506214300 58 3 4.0 6.0 0.00 0.00 0.00 40 1016.1
20260506213758 57 220 1.0 1.0 0.00 0.00 0.00 47 1016.2
20260506213254 58 229 6.0 7.0 0.00 0.00 0.00 40 1015.9
20260506212752 59 250 3.0 5.0 0.00 0.00 0.00 38 1016.2
20260506212247 58 330 3.0 3.0 0.00 0.00 0.00 44 1016.1
20260506211743 57 333 5.0 7.0 0.00 0.00 0.00 40 1016.3
20260506211239 57 225 4.0 6.0 0.00 0.00 0.00 45 1016.4
20260506210736 57 227 2.0 3.0 0.00 0.00 0.00 43 1016.2
20260506210233 58 230 3.0 3.0 0.00 0.00 0.00 43 1016.4
20260506205730 58 228 2.0 2.0 0.00 0.00 0.00 41 1016.5
20260506205226 58 242 4.0 7.0 0.00 0.00 0.00 39 1016.4
20260506204718 58 234 5.0 8.0 0.00 0.00 0.00 42 1016.3
20260506204215 58 252 5.0 9.0 0.00 0.00 0.00 42 1016.5
20260506203713 57 221 1.0 2.0 0.00 0.00 0.00 44 1016.7
20260506203209 58 245 3.0 6.0 0.00 0.00 0.00 39 1016.7
20260506202702 58 219 3.0 5.0 0.00 0.00 0.00 42 1016.7
20260506202157 58 241 2.0 3.0 0.00 0.00 0.00 38 1016.5
20260506201655 57 223 1.0 1.0 0.00 0.00 0.00 44 1016.6
20260506201151 59 227 4.0 6.0 0.00 0.00 0.00 41 1016.7
20260506200648 58 226 3.0 3.0 0.00 0.00 0.00 43 1016.7
20260506200144 59 263 8.0 10.0 0.00 0.00 0.00 39 1016.7
20260506195641 60 247 2.0 6.0 0.00 0.00 0.00 46 1016.6
20260506195137 58 290 4.0 5.0 0.00 0.00 0.00 43 1016.4
20260506194635 59 229 1.0 1.0 0.00 0.00 0.00 41 1016.5
20260506194131 59 258 7.0 9.0 0.00 0.00 0.00 39 1016.7
20260506193629 59 196 4.0 6.0 0.00 0.00 0.00 41 1016.6
20260506193126 59 4 3.0 5.0 0.00 0.00 0.00 39 1016.7
20260506192623 59 230 3.0 5.0 0.00 0.00 0.00 41 1016.7
20260506192118 59 228 1.0 2.0 0.00 0.00 0.00 43 1016.8
20260506191615 59 242 5.0 7.0 0.00 0.00 0.00 42 1016.6
20260506191111 57 226 3.0 3.0 0.00 0.00 0.00 43 1016.7
20260506190609 58 252 4.0 5.0 0.00 0.00 0.00 38 1016.8
20260506190106 59 223 1.0 2.0 0.00 0.00 0.00 41 1017.0
20260506185603 59 254 3.0 5.0 0.00 0.00 0.00 41 1016.8
20260506185059 58 239 1.0 3.0 0.00 0.00 0.00 43 1017.0
20260506184557 57 253 3.0 5.0 0.00 0.00 0.00 41 1016.9
20260506184054 58 265 3.0 5.0 0.00 0.00 0.00 46 1016.8
20260506183550 58 242 2.0 3.0 0.00 0.00 0.00 41 1016.8
20260506183046 59 244 3.0 5.0 0.00 0.00 0.00 40 1016.9
20260506182544 59 314 3.0 5.0 0.00 0.00 0.00 37 1017.0
20260506182041 58 211 2.0 3.0 0.00 0.00 0.00 49 1017.0
20260506181539 57 248 3.0 6.0 0.00 0.00 0.00 42 1017.1
20260506181035 57 263 2.0 3.0 0.00 0.00 0.00 42 1016.9
20260506180532 59 227 5.0 7.0 0.00 0.00 0.00 42 1016.8
20260506180029 58 252 3.0 3.0 0.00 0.00 0.00 40 1016.8
20260506175525 57 249 5.0 7.0 0.00 0.00 0.00 43 1016.8
20260506175022 57 253 4.0 6.0 0.00 0.00 0.00 45 1016.8
20260506174520 59 246 5.0 6.0 0.00 0.00 0.00 41 1016.7
20260506174016 57 12 3.0 5.0 0.00 0.00 0.00 46 1017.0
20260506173514 58 215 3.0 5.0 0.00 0.00 0.00 46 1016.8
20260506173011 56 238 3.0 5.0 0.00 0.00 0.00 44 1016.9
20260506172508 57 227 3.0 3.0 0.00 0.00 0.00 44 1016.9
20260506172004 57 229 1.0 1.0 0.00 0.00 0.00 44 1016.8
20260506171501 57 233 2.0 2.0 0.00 0.00 0.00 43 1017.0
20260506170958 58 229 0.0 1.0 0.00 0.00 0.00 43 1017.0
20260506170455 56 332 3.0 3.0 0.00 0.00 0.00 47 1017.1
20260506165948 58 178 3.0 3.0 0.00 0.00 0.00 44 1017.1
20260506165446 56 246 3.0 3.0 0.00 0.00 0.00 48 1017.2
20260506164936 57 66 2.0 2.0 0.00 0.00 0.00 47 1017.2
20260506164433 56 208 2.0 2.0 0.00 0.00 0.00 46 1017.2
20260506163931 57 245 2.0 3.0 0.00 0.00 0.00 49 1017.1
20260506163425 56 272 2.0 2.0 0.00 0.00 0.00 43 1017.1
20260506162920 57 263 3.0 5.0 0.00 0.00 0.00 51 1016.7
20260506162418 58 223 1.0 1.0 0.00 0.00 0.00 46 1016.8
20260506161910 58 344 5.0 6.0 0.00 0.00 0.00 51 1017.1
20260506161408 57 251 1.0 1.0 0.00 0.00 0.00 48 1016.9
20260506160905 56 0 2.0 6.0 0.00 0.00 0.00 55 1016.9
20260506160401 56 230 1.0 1.0 0.00 0.00 0.00 49 1017.2
20260506155900 55 207 2.0 3.0 0.00 0.00 0.00 50 1016.9
20260506155356 56 264 4.0 6.0 0.00 0.00 0.00 49 1016.9
20260506153513 55 242 2.0 3.0 0.00 0.00 0.00 52 1016.5
20260506153011 55 223 0.0 0.0 0.00 0.00 0.00 56 1016.7
20260506152508 54 225 0.0 0.0 0.00 0.00 0.00 56 1016.5
20260506152006 53 246 1.0 1.0 0.00 0.00 0.00 58 1016.6
20260506151503 53 298 3.0 3.0 0.00 0.00 0.00 58 1016.6
20260506151001 52 268 1.0 2.0 0.00 0.00 0.00 60 1016.7
20260506150457 52 236 3.0 3.0 0.00 0.00 0.00 58 1016.5
20260506145954 52 238 2.0 2.0 0.00 0.00 0.00 60 1016.3
20260506145450 52 284 2.0 2.0 0.00 0.00 0.00 61 1016.3
20260506144948 52 187 2.0 2.0 0.00 0.00 0.00 62 1016.2
20260506144444 51 300 3.0 3.0 0.00 0.00 0.00 62 1016.3
20260506143942 51 226 1.0 1.0 0.00 0.00 0.00 66 1016.2
20260506143439 51 230 1.0 2.0 0.00 0.00 0.00 68 1016.0
20260506142937 50 230 1.0 2.0 0.00 0.00 0.00 67 1016.0
20260506142435 50 215 0.0 1.0 0.00 0.00 0.00 67 1015.8
20260506141932 50 342 2.0 2.0 0.00 0.00 0.00 68 1015.9
20260506141430 50 296 3.0 3.0 0.00 0.00 0.00 67 1015.7
20260506140929 49 226 1.0 1.0 0.00 0.00 0.00 72 1015.8
20260506140426 49 224 0.0 1.0 0.00 0.00 0.00 70 1015.8
20260506135922 49 231 2.0 3.0 0.00 0.00 0.00 70 1015.9
20260506135419 49 228 1.0 2.0 0.00 0.00 0.00 70 1016.0
20260506134915 49 296 2.0 3.0 0.00 0.00 0.00 67 1015.6
20260506134412 48 244 1.0 2.0 0.00 0.00 0.00 70 1016.0
20260506133909 48 244 0.0 1.0 0.00 0.00 0.00 69 1015.8
20260506133406 48 232 1.0 1.0 0.00 0.00 0.00 72 1015.8
20260506132902 48 238 1.0 2.0 0.00 0.00 0.00 69 1015.8
20260506132359 48 232 0.0 1.0 0.00 0.00 0.00 70 1015.8
20260506131857 48 270 1.0 2.0 0.00 0.00 0.00 72 1015.8
20260506131353 48 237 1.0 1.0 0.00 0.00 0.00 73 1016.1
20260506130850 47 226 0.0 0.0 0.00 0.00 0.00 75 1015.9
20260506130347 47 304 1.0 2.0 0.00 0.00 0.00 75 1015.7
20260506125845 47 227 0.0 0.0 0.00 0.00 0.00 77 1015.8
20260506125343 46 232 0.0 1.0 0.00 0.00 0.00 75 1016.1
20260506124841 46 235 0.0 0.0 0.00 0.00 0.00 76 1015.8
20260506124338 46 223 0.0 0.0 0.00 0.00 0.00 77 1016.2
20260506123835 46 223 0.0 0.0 0.00 0.00 0.00 77 1015.9
20260506123333 46 223 0.0 0.0 0.00 0.00 0.00 75 1015.9
20260506122830 46 223 0.0 0.0 0.00 0.00 0.00 74 1015.7
20260506122327 45 223 0.0 0.0 0.00 0.00 0.00 75 1015.5
20260506121825 45 222 0.0 0.0 0.00 0.00 0.00 78 1015.2
20260506121322 45 222 0.0 0.0 0.00 0.00 0.00 75 1015.1
20260506120819 45 222 0.0 0.0 0.00 0.00 0.00 75 1014.8
20260506120317 45 222 0.0 0.0 0.00 0.00 0.00 74 1014.7
20260506115814 44 220 0.0 0.0 0.00 0.00 0.00 77 1014.7
20260506115313 44 220 0.0 0.0 0.00 0.00 0.00 78 1014.5
20260506114810 44 228 0.0 0.0 0.00 0.00 0.00 76 1014.5
20260506114308 44 232 0.0 0.0 0.00 0.00 0.00 77 1014.3
20260506113806 44 215 0.0 0.0 0.00 0.00 0.00 79 1014.3
20260506113303 44 228 0.0 0.0 0.00 0.00 0.00 80 1014.1
20260506112759 44 228 0.0 0.0 0.00 0.00 0.00 76 1014.3
20260506112257 44 228 0.0 0.0 0.00 0.00 0.00 75 1014.2
20260506111754 44 228 0.0 0.0 0.00 0.00 0.00 73 1014.0
20260506111252 44 228 0.0 0.0 0.00 0.00 0.00 73 1013.9
20260506110749 44 246 1.0 1.0 0.00 0.00 0.00 72 1013.9
20260506110246 44 233 0.0 1.0 0.00 0.00 0.00 73 1013.3
20260506105743 44 226 0.0 0.0 0.00 0.00 0.00 73 1013.4
20260506105240 44 226 0.0 0.0 0.00 0.00 0.00 74 1013.3
20260506104738 44 245 0.0 1.0 0.00 0.00 0.00 75 1013.1
20260506104235 44 244 1.0 1.0 0.00 0.00 0.00 73 1012.9
20260506103732 43 244 0.0 0.0 0.00 0.00 0.00 74 1013.0
20260506103229 43 216 0.0 0.0 0.00 0.00 0.00 75 1013.0
20260506102727 43 206 0.0 0.0 0.00 0.00 0.00 77 1013.0
20260506102225 44 210 0.0 0.0 0.00 0.00 0.00 76 1013.2
20260506101722 44 223 0.0 0.0 0.00 0.00 0.00 75 1013.1
20260506101218 44 233 1.0 1.0 0.00 0.00 0.00 76 1013.0
20260506100716 44 237 1.0 1.0 0.00 0.00 0.00 76 1013.0
20260506100214 44 241 1.0 1.0 0.00 0.00 0.00 76 1013.2
20260506095712 44 222 0.0 1.0 0.00 0.00 0.00 76 1013.0
20260506095209 44 220 0.0 1.0 0.00 0.00 0.00 76 1012.8
20260506094706 44 252 2.0 2.0 0.00 0.00 0.00 77 1012.8
20260506094204 45 259 1.0 1.0 0.00 0.00 0.00 77 1013.0
20260506093703 45 240 0.0 0.0 0.00 0.00 0.00 77 1013.1
20260506093159 45 224 0.0 0.0 0.00 0.00 0.00 78 1013.1
20260506092656 45 233 1.0 1.0 0.00 0.00 0.00 77 1013.0
20260506092154 45 231 0.0 1.0 0.00 0.00 0.00 77 1013.1
20260506091652 45 231 1.0 2.0 0.00 0.00 0.00 77 1012.8
20260506091149 45 248 0.0 0.0 0.00 0.00 0.00 78 1012.8
20260506090647 45 333 4.0 5.0 0.00 0.00 0.00 77 1012.5
20260506090143 45 225 1.0 1.0 0.00 0.00 0.00 79 1012.5
20260506085640 45 227 1.0 2.0 0.00 0.00 0.00 79 1012.2
20260506085136 45 257 1.0 1.0 0.00 0.00 0.00 80 1012.4
20260506084633 45 235 1.0 1.0 0.00 0.00 0.00 81 1012.0
20260506084129 45 252 2.0 2.0 0.00 0.00 0.00 82 1012.2
20260506083627 45 239 1.0 1.0 0.00 0.00 0.00 84 1012.2
20260506083124 45 253 0.0 2.0 0.00 0.00 0.00 86 1012.0
20260506082621 44 220 0.0 0.0 0.00 0.00 0.00 88 1012.1
20260506082116 44 230 0.0 0.0 0.00 0.00 0.00 92 1012.5
20260506081615 44 228 0.0 0.0 0.00 0.00 0.00 94 1012.2
20260506081112 43 226 0.0 0.0 0.00 0.00 0.00 96 1012.1
20260506080610 43 226 0.0 0.0 0.00 0.00 0.00 97 1012.2
20260506080106 43 226 0.0 0.0 0.00 0.00 0.00 98 1012.4
20260506073049 43 226 0.0 0.0 0.00 0.00 0.00 98 1012.5
20260506072547 43 226 0.0 0.0 0.00 0.00 0.00 98 1012.2
20260506072045 43 226 0.0 0.0 0.00 0.00 0.00 98 1012.1
20260506071542 43 226 0.0 0.0 0.00 0.00 0.00 97 1012.2
20260506071039 43 226 0.0 0.0 0.00 0.00 0.00 97 1012.0
20260506070536 43 226 0.0 0.0 0.00 0.00 0.00 97 1012.1
20260506062514 45 226 0.0 0.0 0.00 0.00 0.00 94 1012.0
20260506062010 45 226 0.0 0.0 0.00 0.00 0.00 94 1012.2
20260506061506 45 226 0.0 0.0 0.00 0.00 0.00 93 1012.0
20260506061004 45 226 0.0 0.0 0.00 0.00 0.00 93 1012.0
20260506060503 45 226 0.0 0.0 0.00 0.00 0.00 92 1012.0
20260506050931 48 226 0.0 0.0 0.00 0.00 0.00 92 1011.8
20260506050429 48 226 0.0 0.0 0.00 0.00 0.00 91 1011.6
20260506044919 47 226 0.0 0.0 0.00 0.05 0.05 92 1011.9
20260506044418 47 226 0.0 0.0 0.00 0.05 0.05 92 1011.6
20260506043914 47 226 0.0 0.0 0.00 0.05 0.05 92 1011.5
20260506043411 47 226 0.0 0.0 0.00 0.05 0.05 92 1011.5
20260506042909 47 226 0.0 0.0 0.00 0.05 0.05 90 1011.5
20260506042408 47 226 0.0 0.0 0.00 0.05 0.05 90 1011.9
20260506041906 47 226 0.0 0.0 0.00 0.05 0.05 91 1011.8
20260506041403 47 226 0.0 0.0 0.00 0.05 0.05 90 1011.8
20260506040900 47 226 0.0 0.0 0.00 0.05 0.05 90 1012.1
20260506040358 47 226 0.0 0.0 0.00 0.05 0.05 89 1011.8
20260506035854 48 226 0.0 0.0 0.00 0.05 0.05 87 1011.7
20260506035351 48 226 0.0 0.0 0.00 0.05 0.05 87 1011.9
20260506034848 48 226 0.0 0.0 0.00 0.05 0.05 86 1011.8
20260506034345 48 226 0.0 0.0 0.00 0.05 0.05 85 1011.9
20260506033842 49 226 0.0 0.0 0.00 0.05 0.05 85 1012.0
20260506033339 49 226 0.0 0.0 0.00 0.05 0.05 84 1011.9
20260506032836 49 226 0.0 0.0 0.00 0.05 0.05 84 1011.8
20260506032333 49 226 0.0 0.0 0.00 0.05 0.05 85 1012.1
20260506031830 49 226 0.0 0.0 0.00 0.05 0.05 84 1012.2
20260506031327 50 226 0.0 0.0 0.00 0.05 0.05 84 1012.0
20260506030825 50 226 0.0 0.0 0.00 0.05 0.05 83 1012.0
20260506030323 49 226 0.0 0.0 0.00 0.05 0.05 82 1012.0
20260506025819 50 226 0.0 0.0 0.00 0.05 0.05 82 1011.8
20260506025315 50 226 0.0 0.0 0.00 0.05 0.05 81 1012.0
20260506024813 50 226 0.0 0.0 0.00 0.05 0.05 84 1011.8
20260506024309 50 226 0.0 0.0 0.00 0.05 0.05 82 1011.7
20260506023806 50 226 0.0 0.0 0.00 0.05 0.05 82 1011.6
20260506023303 50 226 0.0 0.0 0.00 0.05 0.05 84 1011.5
20260506022759 50 226 0.0 0.0 0.00 0.05 0.05 81 1011.8
20260506022257 50 226 0.0 0.0 0.00 0.05 0.05 80 1011.4
20260506021755 50 226 0.0 0.0 0.00 0.05 0.05 78 1011.6
20260506021252 50 226 0.0 0.0 0.00 0.05 0.05 78 1011.4
20260506020748 50 226 0.0 0.0 0.00 0.05 0.05 79 1011.5
20260506020247 50 226 0.0 0.0 0.00 0.05 0.05 80 1011.5
20260506015744 51 226 0.0 0.0 0.00 0.05 0.05 79 1011.6
20260506015241 50 226 0.0 0.0 0.00 0.05 0.05 78 1011.2
20260506014738 50 225 0.0 0.0 0.00 0.05 0.05 79 1010.9
20260506014234 50 225 0.0 0.0 0.00 0.05 0.05 82 1010.9
20260506013732 51 225 0.0 0.0 0.00 0.05 0.05 83 1010.8
20260506013229 51 225 0.0 0.0 0.00 0.05 0.05 81 1010.6
20260506012725 51 225 0.0 0.0 0.00 0.05 0.05 80 1010.9
20260506012222 51 225 0.0 0.0 0.00 0.05 0.05 79 1010.6
20260506011720 51 226 0.0 0.0 0.00 0.05 0.05 75 1010.7
20260506011215 51 225 0.0 0.0 0.00 0.05 0.05 75 1010.5
20260506010714 51 225 0.0 0.0 0.00 0.05 0.05 75 1010.8
20260506010211 51 226 0.0 0.0 0.00 0.05 0.05 75 1010.4
20260506005708 52 226 0.0 0.0 0.00 0.05 0.05 73 1010.8
20260506005205 52 226 0.0 0.0 0.00 0.05 0.05 74 1010.6
20260506004701 52 226 0.0 0.0 0.00 0.05 0.05 70 1010.8
20260506004159 52 226 0.0 0.0 0.00 0.05 0.05 67 1010.6
20260506003654 52 226 0.0 0.0 0.00 0.05 0.05 63 1010.6
20260506003151 52 226 0.0 0.0 0.00 0.05 0.05 63 1010.4
20260506002647 53 226 0.0 0.0 0.00 0.05 0.05 63 1010.4
20260506002143 53 226 0.0 0.0 0.00 0.05 0.05 62 1010.3
20260506001639 53 225 0.0 0.0 0.00 0.05 0.05 63 1010.4